Weather History for Grand Canyon, AZ

Change the Weather History Date:

Friday, November 9, 2012

  Actual Average Record
Temperature  
Mean Temperature 40 °F -  
Max Temperature 51 °F 50 °F 69 °F (1980)
Min Temperature 30 °F 21 °F 14 °F (2011)
Degree Days  
Heating Degree Days 24    
Moisture  
Dew Point 34 °F    
Average Humidity 74    
Maximum Humidity 89    
Minimum Humidity 48    
Precipitation  
Precipitation 0.02 in - - ()
Sea Level Pressure  
Sea Level Pressure 29.72 in    
Wind  
Wind Speed 17 mph (SW)    
Max Wind Speed 36 mph    
Max Gust Speed 51 mph    
Visibility 10 miles    
Events Rain    
Averages and records for this station are not official NWS values.
T = Trace of Precipitation, MM = Missing Value Source: NWS Daily Summary

Daily Weather History Graph

Daily Weather History Graph

Search for Another Location

Airport:

Trip Planner

Search our weather history database for the weather conditions in past years. The results will help you decide how hot, cold, wet, or windy it might be!

Date:

Astronomy

Nov. 09, 2012 Rise Set
Actual Time 6:59 AM MST 5:25 PM MST
Civil Twilight 6:32 AM MST 5:52 PM MST
Nautical Twilight 6:01 AM MST 6:22 PM MST
Astronomical Twilight 5:31 AM MST 6:52 PM MST
Moon 2:10 AM MST (11/9) 2:32 PM MST (11/9)
Length of Visible Light 11h 19m
Length of Day
10h 25m
Waning Crescent, 22% of the Moon is Illuminated
Nov 9
Waning Crescent
Nov 13
New
Nov 20
First Quarter
Nov 28
Full
Dec 6
Last Quarter

Hourly Weather History & Observations

Time (MST) Temp. Windchill Dew Point Humidity Pressure Visibility Wind Dir Wind Speed Gust Speed Precip Events Conditions
12:54 AM 45.0 °F 37.1 °F 39.0 °F 80% 29.74 in 10.0 mi SSW 19.6 mph 26.5 mph N/A   Scattered Clouds
1:54 AM 45.0 °F 38.9 °F 39.0 °F 80% 29.73 in 10.0 mi SSW 12.7 mph 21.9 mph N/A   Mostly Cloudy
2:54 AM 45.0 °F 39.7 °F 37.0 °F 74% 29.72 in 10.0 mi South 10.4 mph - N/A   Mostly Cloudy
3:51 AM 44.6 °F 39.7 °F 35.6 °F 71% 29.89 in 10.0 mi South 9.2 mph - N/A   Mostly Cloudy
3:54 AM 45.0 °F 40.1 °F 36.0 °F 71% 29.72 in 10.0 mi SSW 9.2 mph - N/A   Mostly Cloudy
4:54 AM 46.0 °F 41.4 °F 37.0 °F 71% 29.72 in 10.0 mi SSW 9.2 mph - N/A   Overcast
5:34 AM 44.6 °F 38.8 °F 37.4 °F 76% 29.87 in 10.0 mi SSW 11.5 mph 21.9 mph N/A   Overcast
5:54 AM 45.0 °F 39.3 °F 37.0 °F 74% 29.72 in 10.0 mi South 11.5 mph 18.4 mph N/A   Overcast
6:54 AM 46.0 °F 39.0 °F 36.0 °F 68% 29.70 in 10.0 mi SSW 17.3 mph 25.3 mph N/A   Overcast
7:39 AM 46.4 °F 39.8 °F 37.4 °F 71% 29.85 in 10.0 mi SSW 16.1 mph 25.3 mph N/A   Overcast
7:54 AM 46.0 °F 39.6 °F 37.9 °F 73% 29.70 in 10.0 mi SSW 15.0 mph 25.3 mph N/A   Overcast
8:54 AM 46.9 °F - 39.0 °F 74% 29.70 in 10.0 mi SW 21.9 mph 38.0 mph N/A   Overcast
9:21 AM 46.4 °F 38.3 °F 39.2 °F 76% 29.84 in 10.0 mi SW 23.0 mph 32.2 mph N/A   Overcast
9:49 AM 48.2 °F - 39.2 °F 71% 29.85 in 10.0 mi SW 25.3 mph 38.0 mph N/A   Mostly Cloudy
9:54 AM 48.0 °F - 37.9 °F 68% 29.70 in 10.0 mi SW 24.2 mph 41.4 mph N/A   Overcast
10:54 AM 48.9 °F - 35.1 °F 59% 29.66 in 10.0 mi SSW 27.6 mph 39.1 mph N/A   Overcast
11:54 AM 51.1 °F - 32.0 °F 48% 29.64 in 10.0 mi SSW 35.7 mph 44.9 mph N/A   Overcast
12:54 PM 46.9 °F - 37.0 °F 68% 29.65 in 5.0 mi SW 27.6 mph 50.6 mph 0.00 in Rain Light Rain
1:15 PM 46.4 °F 37.4 °F 37.4 °F 71% 29.78 in 10.0 mi SSW 28.8 mph 38.0 mph 0.00 in Rain Light Rain
1:32 PM 48.2 °F - 35.6 °F 62% 29.77 in 10.0 mi SSW 27.6 mph 39.1 mph 0.00 in   Mostly Cloudy
1:54 PM 46.0 °F 37.8 °F 36.0 °F 68% 29.63 in 9.0 mi SSW 23.0 mph 39.1 mph 0.00 in Rain Light Rain
2:54 PM 46.0 °F 37.0 °F 33.1 °F 61% 29.62 in 10.0 mi SSW 27.6 mph 40.3 mph 0.00 in Rain Light Rain
3:54 PM 45.0 °F 35.8 °F 32.0 °F 60% 29.62 in 10.0 mi SSW 26.5 mph 34.5 mph 0.00 in   Mostly Cloudy
4:54 PM 44.1 °F 37.1 °F 33.1 °F 65% 29.60 in 10.0 mi SSW 15.0 mph 31.1 mph 0.00 in   Overcast
5:54 PM 42.1 °F 32.8 °F 34.0 °F 73% 29.61 in 6.0 mi SW 21.9 mph 35.7 mph 0.01 in Rain Light Rain
6:01 PM 39.2 °F 29.0 °F 35.6 °F 87% 29.74 in 5.0 mi SW 21.9 mph 35.7 mph 0.01 in Rain Light Rain
6:54 PM 37.9 °F 26.8 °F 34.0 °F 86% 29.64 in 7.0 mi SW 24.2 mph 35.7 mph 0.01 in Rain Light Rain
7:21 PM 37.4 °F 27.8 °F 33.8 °F 87% 29.74 in 10.0 mi SW 17.3 mph 25.3 mph 0.00 in   Overcast
7:54 PM 37.9 °F 26.6 °F 30.9 °F 76% 29.63 in 10.0 mi SW 25.3 mph 33.4 mph 0.00 in   Overcast
8:50 PM 35.6 °F 28.6 °F 30.2 °F 81% 29.76 in 10.0 mi WSW 9.2 mph 18.4 mph N/A   Overcast
8:54 PM 35.1 °F 27.4 °F 30.0 °F 82% 29.65 in 10.0 mi West 10.4 mph 19.6 mph N/A   Overcast
9:48 PM 33.8 °F 25.3 °F 28.4 °F 81% 29.77 in 10.0 mi WSW 11.5 mph - N/A   Overcast
9:49 PM 33.8 °F 25.3 °F 28.4 °F 81% 29.77 in 10.0 mi WSW 11.5 mph 18.4 mph N/A   Overcast
9:54 PM 33.1 °F 24.9 °F 28.9 °F 85% 29.67 in 10.0 mi WSW 10.4 mph - N/A   Overcast
10:54 PM 30.9 °F 21.7 °F 28.0 °F 89% 29.67 in 10.0 mi West 11.5 mph 20.7 mph N/A   Overcast
11:16 PM 30.2 °F 20.8 °F 24.8 °F 80% 29.76 in 10.0 mi West 11.5 mph 18.4 mph N/A   Overcast
11:54 PM 30.0 °F 21.1 °F 25.0 °F 82% 29.66 in 10.0 mi WSW 10.4 mph 16.1 mph N/A   Overcast
11:57 PM 30.2 °F 21.9 °F 24.8 °F 80% 29.76 in 10.0 mi West 9.2 mph - N/A   Overcast